When you browse on this site, cookies collect data to enhance your experience and personalize the content and advertising you see.
Visit our Privacy Policy to learn more. By continuing to use the site, you agree to this use of cookies and data.
  • In Czech Republic
  • List of Countries
  • For 7 days
  • Water Temperature
  • Weather Map
  • Weather Widgets
  • user-avatar
    Login

    Hourly Weather Malaga

    Today, 18 November, Monday

    Time Temperature Precipitation Wind Pressure Humidity
    00:00 +13°C° 0 mm 0 mps 576 mmHg 94%
    01:00 +13°C° 0 mm 0 mps 575 mmHg 93%
    02:00 +12°C° 0 mm 0 mps 575 mmHg 93%
    03:00 +12°C° 0 mm 0 mps 575 mmHg 93%
    04:00 +12°C° 0 mm 0 mps 575 mmHg 93%
    05:00 +12°C° 0 mm 0 mps 576 mmHg 91%
    06:00 +13°C° 0 mm 0 mps 576 mmHg 88%
    07:00 +14°C° 0 mm 0 mps 577 mmHg 86%
    08:00 +15°C° 0 mm 0 mps 578 mmHg 81%
    09:00 +19°C° 0 mm 1 mps 579 mmHg 75%
    10:00 +20°C° 0 mm 1 mps 579 mmHg 70%
    11:00 +21°C° 0.1 mm 1 mps 579 mmHg 70%
    12:00 +20°C° 0.1 mm 2 mps 578 mmHg 70%
    13:00 +20°C° 0.1 mm 2 mps 578 mmHg 70%
    14:00 +20°C° 0.5 mm 2 mps 577 mmHg 75%
    15:00 +20°C° 0.5 mm 1 mps 577 mmHg 80%
    16:00 +19°C° 0.5 mm 1 mps 576 mmHg 85%
    17:00 +18°C° 0.5 mm 1 mps 576 mmHg 89%
    18:00 +16°C° 0.5 mm 1 mps 576 mmHg 92%
    19:00 +14°C° 0.5 mm 0 mps 576 mmHg 96%
    20:00 +14°C° 0.4 mm 0 mps 576 mmHg 96%
    21:00 +13°C° 0.4 mm 0 mps 577 mmHg 95%
    22:00 +13°C° 0.4 mm 0 mps 577 mmHg 95%
    23:00 +13°C° 0.2 mm 0 mps 577 mmHg 95%

    Tomorrow, 19 November, Tuesday

    Time Temperature Precipitation Wind Pressure Humidity
    00:00 +13°C° 0.2 mm 0 mps 576 mmHg 94%
    01:00 +13°C° 0.2 mm 0 mps 576 mmHg 94%
    02:00 +12°C° 0.1 mm 0 mps 576 mmHg 94%
    03:00 +12°C° 0.1 mm 0 mps 576 mmHg 94%
    04:00 +12°C° 0.1 mm 0 mps 576 mmHg 94%
    05:00 +13°C° 0 mm 0 mps 576 mmHg 93%
    06:00 +13°C° 0 mm 0 mps 577 mmHg 91%
    07:00 +14°C° 0 mm 0 mps 578 mmHg 90%
    08:00 +15°C° 0.1 mm 0 mps 578 mmHg 85%
    09:00 +19°C° 0.1 mm 1 mps 579 mmHg 79%
    10:00 +20°C° 0.1 mm 1 mps 580 mmHg 74%
    11:00 +20°C° 0.4 mm 1 mps 579 mmHg 75%
    12:00 +21°C° 0.4 mm 1 mps 579 mmHg 76%
    13:00 +20°C° 0.4 mm 2 mps 578 mmHg 76%
    14:00 +20°C° 0.7 mm 1 mps 578 mmHg 79%
    15:00 +20°C° 0.7 mm 1 mps 577 mmHg 82%
    16:00 +19°C° 0.7 mm 1 mps 577 mmHg 84%
    17:00 +18°C° 0.7 mm 1 mps 577 mmHg 88%
    18:00 +16°C° 0.7 mm 1 mps 577 mmHg 92%
    19:00 +14°C° 0.7 mm 0 mps 577 mmHg 96%
    20:00 +13°C° 0.4 mm 0 mps 577 mmHg 96%
    21:00 +13°C° 0.4 mm 0 mps 577 mmHg 95%
    22:00 +13°C° 0.4 mm 0 mps 578 mmHg 95%
    23:00 +13°C° 0.3 mm 0 mps 577 mmHg 95%

    Day after tomorrow, 20 November, Wednesday

    Time Temperature Precipitation Wind Pressure Humidity
    00:00 +13°C° 0.3 mm 0 mps 577 mmHg 95%
    01:00 +13°C° 0.3 mm 0 mps 577 mmHg 95%
    02:00 +12°C° 0.2 mm 0 mps 576 mmHg 95%
    03:00 +12°C° 0.2 mm 0 mps 576 mmHg 95%
    04:00 +12°C° 0.2 mm 0 mps 576 mmHg 94%
    05:00 +12°C° 0.1 mm 0 mps 577 mmHg 93%
    06:00 +13°C° 0.1 mm 0 mps 577 mmHg 92%
    07:00 +13°C° 0.1 mm 0 mps 578 mmHg 90%
    08:00 +14°C° 0.2 mm 0 mps 578 mmHg 88%
    09:00 +16°C° 0.2 mm 1 mps 579 mmHg 86%
    10:00 +19°C° 0.2 mm 1 mps 579 mmHg 83%
    11:00 +19°C° 0.2 mm 1 mps 579 mmHg 81%
    12:00 +19°C° 0.2 mm 2 mps 579 mmHg 78%
    13:00 +19°C° 0.2 mm 2 mps 578 mmHg 76%
    14:00 +19°C° 0.4 mm 2 mps 578 mmHg 80%
    15:00 +19°C° 0.4 mm 1 mps 577 mmHg 84%
    16:00 +18°C° 0.4 mm 1 mps 577 mmHg 88%
    17:00 +16°C° 0.4 mm 1 mps 577 mmHg 91%
    18:00 +15°C° 0.4 mm 1 mps 576 mmHg 93%
    19:00 +13°C° 0.4 mm 0 mps 576 mmHg 96%
    20:00 +13°C° 0.1 mm 0 mps 576 mmHg 95%
    21:00 +12°C° 0.1 mm 0 mps 577 mmHg 95%
    22:00 +13°C° 0.1 mm 1 mps 577 mmHg 94%
    23:00 +13°C° 0 mm 1 mps 577 mmHg 93%

    21 November, Thursday

    Time Temperature Precipitation Wind Pressure Humidity
    00:00 +13°C° 0 mm 1 mps 576 mmHg 93%
    01:00 +13°C° 0 mm 1 mps 576 mmHg 93%
    02:00 +11°C° 0 mm 0 mps 576 mmHg 93%
    03:00 +11°C° 0 mm 0 mps 576 mmHg 92%
    04:00 +11°C° 0 mm 0 mps 576 mmHg 92%
    05:00 +12°C° 0 mm 0 mps 576 mmHg 90%
    06:00 +13°C° 0 mm 0 mps 577 mmHg 88%
    07:00 +14°C° 0 mm 1 mps 578 mmHg 86%
    08:00 +16°C° 0 mm 1 mps 578 mmHg 81%
    09:00 +18°C° 0 mm 1 mps 579 mmHg 77%
    10:00 +20°C° 0 mm 1 mps 580 mmHg 72%
    11:00 +20°C° 0.2 mm 1 mps 579 mmHg 73%
    12:00 +19°C° 0.2 mm 2 mps 579 mmHg 73%
    13:00 +19°C° 0.2 mm 2 mps 578 mmHg 74%
    14:00 +19°C° 0.4 mm 2 mps 577 mmHg 77%
    15:00 +19°C° 0.4 mm 1 mps 577 mmHg 81%
    16:00 +18°C° 0.4 mm 1 mps 576 mmHg 85%
    17:00 +16°C° 0.6 mm 1 mps 576 mmHg 88%
    18:00 +15°C° 0.6 mm 1 mps 576 mmHg 92%
    19:00 +13°C° 0.6 mm 0 mps 576 mmHg 95%
    20:00 +13°C° 0.3 mm 0 mps 576 mmHg 94%
    21:00 +13°C° 0.3 mm 1 mps 576 mmHg 94%
    22:00 +12°C° 0.3 mm 1 mps 576 mmHg 93%
    23:00 +12°C° 0.1 mm 1 mps 576 mmHg 92%

    22 November, Friday

    Time Temperature Precipitation Wind Pressure Humidity
    00:00 +11°C° 0.1 mm 0 mps 575 mmHg 92%
    01:00 +11°C° 0.1 mm 0 mps 575 mmHg 91%
    02:00 +11°C° 0 mm 0 mps 575 mmHg 90%
    03:00 +11°C° 0 mm 0 mps 575 mmHg 89%
    04:00 +11°C° 0 mm 0 mps 575 mmHg 88%
    05:00 +11°C° 0 mm 0 mps 576 mmHg 85%
    06:00 +12°C° 0 mm 0 mps 576 mmHg 82%
    07:00 +13°C° 0 mm 0 mps 577 mmHg 79%
    08:00 +15°C° 0 mm 1 mps 578 mmHg 75%
    09:00 +18°C° 0 mm 1 mps 579 mmHg 71%
    10:00 +20°C° 0 mm 1 mps 580 mmHg 68%
    11:00 +20°C° 0.4 mm 1 mps 579 mmHg 71%
    12:00 +19°C° 0.4 mm 2 mps 578 mmHg 75%
    13:00 +19°C° 0.4 mm 2 mps 578 mmHg 79%
    14:00 +19°C° 0.9 mm 1 mps 577 mmHg 82%
    15:00 +18°C° 0.9 mm 1 mps 577 mmHg 85%
    16:00 +18°C° 0.9 mm 1 mps 576 mmHg 88%
    17:00 +16°C° 1.1 mm 1 mps 576 mmHg 89%
    18:00 +15°C° 1.1 mm 1 mps 576 mmHg 91%
    19:00 +14°C° 1.1 mm 1 mps 576 mmHg 93%
    20:00 +13°C° 0.2 mm 0 mps 576 mmHg 92%
    21:00 +13°C° 0.2 mm 0 mps 576 mmHg 92%
    22:00 +13°C° 0.2 mm 0 mps 577 mmHg 92%
    23:00 +12°C° 0 mm 0 mps 576 mmHg 92%

    23 November, Saturday

    Time Temperature Precipitation Wind Pressure Humidity
    00:00 +12°C° 0 mm 0 mps 576 mmHg 93%
    01:00 +12°C° 0 mm 0 mps 576 mmHg 93%
    02:00 +12°C° 0 mm 0 mps 575 mmHg 94%
    03:00 +11°C° 0 mm 0 mps 575 mmHg 94%
    04:00 +11°C° 0 mm 0 mps 575 mmHg 94%
    05:00 +12°C° 0 mm 0 mps 576 mmHg 93%
    06:00 +12°C° 0 mm 0 mps 577 mmHg 91%
    07:00 +13°C° 0 mm 0 mps 577 mmHg 90%
    08:00 +14°C° 0.2 mm 0 mps 578 mmHg 87%
    09:00 +18°C° 0.2 mm 1 mps 579 mmHg 84%
    10:00 +19°C° 0.2 mm 1 mps 579 mmHg 81%
    11:00 +19°C° 0.7 mm 1 mps 579 mmHg 81%
    12:00 +19°C° 0.7 mm 1 mps 578 mmHg 82%
    13:00 +19°C° 0.7 mm 1 mps 577 mmHg 82%
    14:00 +19°C° 1 mm 1 mps 577 mmHg 85%
    15:00 +18°C° 1 mm 1 mps 576 mmHg 88%
    16:00 +18°C° 1 mm 1 mps 575 mmHg 91%
    17:00 +16°C° 1 mm 1 mps 576 mmHg 93%
    18:00 +15°C° 1 mm 1 mps 576 mmHg 95%
    19:00 +13°C° 1 mm 0 mps 576 mmHg 97%
    20:00 +13°C° 1.1 mm 0 mps 577 mmHg 95%
    21:00 +13°C° 1.1 mm 0 mps 577 mmHg 94%
    22:00 +13°C° 1.1 mm 0 mps 577 mmHg 93%
    23:00 +13°C° 0.4 mm 0 mps 577 mmHg 93%
    Show more